User: anonymous   Login
Location: Unspecified
(0.0000°N, 0.0000°E)
Time: 15:48:27
(UTC+00:00)
Language:

NOAA 16 DEB - Orbit

View from above orbital plane
View from above orbital plane
View from above satellite
View from above satellite

Ground track
Ground track

The orbit data is extracted from the following two-line orbital elements,

1 41415U 00055KU  22183.67762908  .00001229  00000-0  63424-3 0  9992
2 41415  98.7831 263.9181 0008870  86.5417 273.6772 14.16895755328005
Epoch (UTC): 02 July 2022 16:15:47
Eccentricity: 0.0008870
inclination: 98.7831°
perigee height: 829 km
apogee height: 842 km
right ascension of ascending node: 263.9181°
argument of perigee: 86.5417°
revolutions per day: 14.16895755
mean anomaly at epoch: 273.6772°
orbit number at epoch: 32800

The dashed part of the orbit path shows where the satellite is in the earth's shadow,  

DLR